| time (UTC) | temp F | wind direction | speed MPH | gust MPH | rain 1hr in | rain 24hr in | rain mn in | humidity % | barometer mb |
| 20260902204541 | 98 | 90 | 1.0 | 4.0 | 0.00 | 0.00 | 0.00 | 50 | 1014.8 |
| 20260902203038 | 99 | 108 | 2.0 | 4.0 | 0.00 | 0.00 | 0.00 | 48 | 1015.0 |
| 20260902201537 | 99 | 105 | 1.0 | 4.0 | 0.00 | 0.00 | 0.00 | 46 | 1015.1 |
| 20260902200048 | 97 | 88 | 0.0 | 11.0 | 0.00 | 0.00 | 0.00 | 49 | 1015.3 |
| 20260902194531 | 98 | 63 | 2.0 | 8.0 | 0.00 | 0.00 | 0.00 | 49 | 1015.5 |
| 20260902193027 | 98 | 91 | 2.0 | 5.0 | 0.00 | 0.00 | 0.00 | 48 | 1015.8 |
| 20260902191530 | 98 | 71 | 2.0 | 6.0 | 0.00 | 0.00 | 0.00 | 48 | 1016.1 |
| 20260902190039 | 97 | 101 | 1.0 | 5.0 | 0.00 | 0.00 | 0.00 | 50 | 1016.3 |
| 20260902184520 | 97 | 86 | 2.0 | 6.0 | 0.00 | 0.00 | 0.00 | 51 | 1016.5 |
| 20260902183019 | 96 | 193 | 1.0 | 6.0 | 0.00 | 0.00 | 0.00 | 53 | 1016.6 |
| 20260902181518 | 97 | 255 | 1.0 | 6.0 | 0.00 | 0.00 | 0.00 | 54 | 1016.9 |
| 20260902180015 | 96 | 306 | 1.0 | 6.0 | 0.00 | 0.00 | 0.00 | 53 | 1016.9 |
| 20260902174515 | 96 | 79 | 2.0 | 6.0 | 0.00 | 0.00 | 0.00 | 54 | 1017.2 |
| 20260902173014 | 95 | 142 | 0.0 | 5.0 | 0.00 | 0.00 | 0.00 | 55 | 1017.3 |
| 20260902171614 | 95 | 109 | 1.0 | 4.0 | 0.00 | 0.00 | 0.00 | 58 | 1017.5 |
| 20260902170010 | 94 | 76 | 1.0 | 5.0 | 0.00 | 0.00 | 0.00 | 58 | 1017.7 |
| 20260902164515 | 96 | 76 | 0.0 | 4.0 | 0.00 | 0.00 | 0.00 | 56 | 1018.0 |
| 20260902163006 | 95 | 134 | 0.0 | 3.0 | 0.00 | 0.00 | 0.00 | 56 | 1018.1 |
| 20260902161507 | 95 | 89 | 0.0 | 4.0 | 0.00 | 0.00 | 0.00 | 59 | 1018.3 |
| 20260902160105 | 94 | 126 | 0.0 | 2.0 | 0.00 | 0.00 | 0.00 | 61 | 1018.4 |
| 20260902154555 | 93 | 128 | 0.0 | 2.0 | 0.00 | 0.00 | 0.00 | 60 | 1018.5 |
| 20260902153050 | 93 | 128 | 0.0 | 2.0 | 0.00 | 0.00 | 0.00 | 64 | 1018.6 |
| 20260902151545 | 91 | 129 | 1.0 | 3.0 | 0.00 | 0.00 | 0.00 | 64 | 1018.5 |
| 20260902150040 | 91 | 105 | 1.0 | 2.0 | 0.00 | 0.00 | 0.00 | 70 | 1018.5 |
| 20260902144536 | 90 | 105 | 0.0 | 2.0 | 0.00 | 0.00 | 0.00 | 71 | 1018.4 |
| 20260902143031 | 89 | 105 | 0.0 | 2.0 | 0.00 | 0.00 | 0.00 | 75 | 1018.3 |
| 20260902141535 | 87 | 105 | 0.0 | 2.0 | 0.00 | 0.00 | 0.00 | 76 | 1018.4 |
| 20260902140023 | 85 | 105 | 0.0 | 2.0 | 0.00 | 0.00 | 0.00 | 78 | 1018.5 |
| 20260902134519 | 83 | 105 | 0.0 | 0.0 | 0.00 | 0.00 | 0.00 | 82 | 1018.4 |
| 20260902133014 | 81 | 105 | 0.0 | 0.0 | 0.00 | 0.00 | 0.00 | 84 | 1018.5 |
| 20260902131510 | 79 | 105 | 0.0 | 0.0 | 0.00 | 0.00 | 0.00 | 90 | 1018.4 |
| 20260902130005 | 77 | 105 | 0.0 | 2.0 | 0.00 | 0.00 | 0.00 | 94 | 1018.4 |
| 20260902124501 | 76 | 105 | 0.0 | 0.0 | 0.00 | 0.00 | 0.00 | 97 | 1018.4 |
| 20260902123100 | 75 | 105 | 0.0 | 0.0 | 0.00 | 0.00 | 0.00 | 99 | 1018.4 |
| 20260902121600 | 73 | 105 | 0.0 | 0.0 | 0.00 | 0.00 | 0.00 | 99 | 1018.3 |
| 20260902120053 | 73 | 105 | 0.0 | 1.0 | 0.00 | 0.00 | 0.00 | 99 | 1018.2 |
| 20260902114549 | 73 | 105 | 0.0 | 0.0 | 0.00 | 0.00 | 0.00 | 98 | 1018.0 |
| 20260902113105 | 73 | 105 | 0.0 | 0.0 | 0.00 | 0.00 | 0.00 | 98 | 1017.9 |
| 20260902111552 | 73 | 105 | 0.0 | 0.0 | 0.00 | 0.00 | 0.00 | 98 | 1017.7 |
| 20260902110044 | 73 | 105 | 0.0 | 0.0 | 0.00 | 0.00 | 0.00 | 98 | 1017.6 |
| 20260902104544 | 73 | 105 | 0.0 | 0.0 | 0.00 | 0.00 | 0.00 | 98 | 1017.5 |
| 20260902103042 | 73 | 105 | 0.0 | 0.0 | 0.00 | 0.00 | 0.00 | 98 | 1017.5 |
| 20260902101541 | 74 | 105 | 0.0 | 0.0 | 0.00 | 0.00 | 0.00 | 98 | 1017.3 |
| 20260902100038 | 74 | 105 | 0.0 | 0.0 | 0.00 | 0.00 | 0.00 | 97 | 1017.3 |
| 20260902094545 | 74 | 105 | 0.0 | 0.0 | 0.00 | 0.00 | 0.00 | 97 | 1017.1 |
| 20260902093034 | 74 | 105 | 0.0 | 0.0 | 0.00 | 0.00 | 0.00 | 97 | 1016.9 |
| 20260902091542 | 74 | 105 | 0.0 | 0.0 | 0.00 | 0.00 | 0.00 | 97 | 1016.8 |
| 20260902090031 | 74 | 105 | 0.0 | 1.0 | 0.00 | 0.00 | 0.00 | 96 | 1016.7 |
| 20260902084530 | 74 | 105 | 0.0 | 0.0 | 0.00 | 0.00 | 0.00 | 96 | 1016.6 |
| 20260902083029 | 75 | 105 | 0.0 | 0.0 | 0.00 | 0.00 | 0.00 | 96 | 1016.5 |
| 20260902081527 | 75 | 105 | 0.0 | 1.0 | 0.00 | 0.00 | 0.00 | 96 | 1016.4 |
| 20260902080031 | 75 | 105 | 0.0 | 1.0 | 0.00 | 0.00 | 0.00 | 95 | 1016.4 |
| 20260902074525 | 75 | 105 | 0.0 | 1.0 | 0.00 | 0.00 | 0.00 | 95 | 1016.5 |
| 20260902073024 | 75 | 105 | 0.0 | 1.0 | 0.00 | 0.00 | 0.00 | 95 | 1016.4 |
| 20260902071527 | 76 | 105 | 0.0 | 1.0 | 0.00 | 0.00 | 0.00 | 95 | 1016.4 |
| 20260902070026 | 76 | 105 | 0.0 | 1.0 | 0.00 | 0.00 | 0.00 | 94 | 1016.4 |
| 20260902064522 | 76 | 105 | 0.0 | 1.0 | 0.00 | 0.00 | 0.00 | 94 | 1016.5 |
| 20260902063020 | 76 | 105 | 0.0 | 1.0 | 0.00 | 0.00 | 0.00 | 94 | 1016.3 |
| 20260902061518 | 76 | 105 | 0.0 | 0.0 | 0.00 | 0.00 | 0.00 | 93 | 1016.5 |
| 20260902060019 | 76 | 105 | 0.0 | 0.0 | 0.00 | 0.00 | 0.00 | 93 | 1016.5 |
| 20260902054515 | 76 | 105 | 0.0 | 0.0 | 0.00 | 0.00 | 0.00 | 92 | 1016.6 |
| 20260902053024 | 77 | 105 | 0.0 | 0.0 | 0.00 | 0.00 | 0.00 | 92 | 1016.7 |
| 20260902051513 | 77 | 105 | 0.0 | 0.0 | 0.00 | 0.00 | 0.00 | 91 | 1016.6 |
| 20260902050012 | 77 | 105 | 0.0 | 0.0 | 0.00 | 0.00 | 0.00 | 90 | 1016.6 |
| 20260902044511 | 77 | 105 | 0.0 | 0.0 | 0.00 | 0.00 | 0.00 | 89 | 1016.7 |
| 20260902043008 | 78 | 105 | 0.0 | 0.0 | 0.00 | 0.00 | 0.00 | 89 | 1016.8 |
| 20260902041509 | 78 | 105 | 0.0 | 0.0 | 0.00 | 0.00 | 0.00 | 88 | 1016.8 |
| 20260902040007 | 78 | 105 | 0.0 | 0.0 | 0.00 | 0.00 | 0.00 | 88 | 1016.8 |
| 20260902034506 | 79 | 105 | 0.0 | 0.0 | 0.00 | 0.00 | 0.00 | 87 | 1016.8 |
| 20260902033006 | 79 | 105 | 0.0 | 0.0 | 0.00 | 0.00 | 0.00 | 86 | 1016.9 |
| 20260902031505 | 80 | 105 | 0.0 | 0.0 | 0.00 | 0.00 | 0.00 | 85 | 1016.8 |
| 20260902030004 | 80 | 105 | 0.0 | 0.0 | 0.00 | 0.00 | 0.00 | 84 | 1016.9 |
| 20260902024507 | 80 | 105 | 0.0 | 0.0 | 0.00 | 0.00 | 0.00 | 83 | 1016.8 |
| 20260902023004 | 81 | 105 | 0.0 | 0.0 | 0.00 | 0.00 | 0.00 | 82 | 1016.7 |
| 20260902021506 | 81 | 105 | 0.0 | 0.0 | 0.00 | 0.00 | 0.00 | 81 | 1016.7 |
| 20260902020003 | 82 | 105 | 0.0 | 0.0 | 0.00 | 0.00 | 0.00 | 79 | 1016.4 |
| 20260902014501 | 83 | 105 | 0.0 | 0.0 | 0.00 | 0.00 | 0.00 | 77 | 1016.3 |
| 20260902013002 | 83 | 105 | 0.0 | 1.0 | 0.00 | 0.00 | 0.00 | 73 | 1016.1 |
| 20260902011601 | 84 | 105 | 0.0 | 0.0 | 0.00 | 0.00 | 0.00 | 73 | 1016.0 |
| 20260902004559 | 85 | 105 | 0.0 | 0.0 | 0.00 | 0.00 | 0.00 | 70 | 1015.7 |
| 20260902003059 | 86 | 105 | 0.0 | 0.0 | 0.00 | 0.00 | 0.00 | 68 | 1015.7 |
| 20260902001558 | 87 | 105 | 0.0 | 1.0 | 0.00 | 0.00 | 0.00 | 66 | 1015.7 |
| 20260902000100 | 88 | 105 | 0.0 | 1.0 | 0.00 | 0.00 | 0.00 | 65 | 1015.7 |
| 20260901234613 | 89 | 105 | 0.0 | 1.0 | 0.00 | 0.00 | 0.00 | 64 | 1015.8 |
| 20260901233101 | 91 | 105 | 0.0 | 1.0 | 0.00 | 0.00 | 0.00 | 61 | 1015.9 |
| 20260901231556 | 91 | 105 | 1.0 | 3.0 | 0.00 | 0.00 | 0.00 | 58 | 1015.9 |
| 20260901230135 | 92 | 87 | 0.0 | 3.0 | 0.00 | 0.00 | 0.00 | 57 | 1015.8 |
| 20260901224555 | 92 | 84 | 0.0 | 4.0 | 0.00 | 0.00 | 0.00 | 56 | 1015.8 |
| 20260901223110 | 93 | 63 | 1.0 | 3.0 | 0.00 | 0.00 | 0.00 | 55 | 1015.8 |
| 20260901221553 | 93 | 105 | 1.0 | 4.0 | 0.00 | 0.00 | 0.00 | 54 | 1015.7 |
| 20260901220100 | 93 | 92 | 0.0 | 3.0 | 0.00 | 0.00 | 0.00 | 55 | 1015.6 |
| 20260901214552 | 94 | 181 | 0.0 | 4.0 | 0.00 | 0.00 | 0.00 | 55 | 1015.7 |
| 20260901213051 | 94 | 78 | 0.0 | 8.0 | 0.00 | 0.00 | 0.00 | 53 | 1015.7 |
| 20260901211554 | 95 | 96 | 0.0 | 6.0 | 0.00 | 0.00 | 0.00 | 50 | 1015.8 |
| 20260901210057 | 96 | 78 | 1.0 | 5.0 | 0.00 | 0.00 | 0.00 | 51 | 1016.1 |